| time (UTC) | temp F | wind direction | speed MPH | gust MPH | rain 1hr in | rain 24hr in | rain mn in | humidity % | barometer mb |
| 20260503150224 | 54 | 108 | 3.0 | 4.0 | 0.01 | 0.00 | 0.00 | 98 | 1022.0 |
| 20260503140219 | 59 | 121 | 3.0 | 4.0 | 0.00 | 0.00 | 0.00 | 98 | 1022.0 |
| 20260503131216 | 50 | 118 | 4.0 | 5.0 | 0.00 | 0.00 | 0.00 | 98 | 1021.0 |
| 20260503130215 | 58 | 118 | 4.0 | 5.0 | 0.00 | 0.00 | 0.00 | 98 | 1021.0 |
| 20260503120210 | 58 | 126 | 4.0 | 5.0 | 0.00 | 0.00 | 0.00 | 99 | 1021.0 |
| 20260503110206 | 59 | 119 | 3.0 | 5.0 | 0.00 | 0.00 | 0.00 | 99 | 1020.0 |
| 20260503100202 | 57 | 115 | 3.0 | 4.0 | 0.00 | 0.00 | 0.00 | 97 | 1019.0 |
| 20260503090157 | 57 | 100 | 1.0 | 3.0 | 0.00 | 0.00 | 0.00 | 97 | 1018.0 |
| 20260503081153 | 60 | 112 | 1.0 | 3.0 | 0.00 | 0.00 | 0.00 | 97 | 1019.0 |
| 20260503080153 | 57 | 112 | 1.0 | 3.0 | 0.00 | 0.00 | 0.00 | 97 | 1019.0 |
| 20260503072150 | 58 | 105 | 1.0 | 3.0 | 0.00 | 0.00 | 0.00 | 96 | 1019.0 |
| 20260503071149 | 55 | 105 | 1.0 | 3.0 | 0.00 | 0.00 | 0.00 | 96 | 1019.0 |
| 20260503070148 | 52 | 105 | 1.0 | 3.0 | 0.00 | 0.00 | 0.00 | 96 | 1019.0 |
| 20260503060144 | 54 | 97 | 1.0 | 1.0 | 0.00 | 0.00 | 0.00 | 96 | 1020.0 |
| 20260503054142 | 58 | 97 | 1.0 | 1.0 | 0.00 | 0.00 | 0.00 | 97 | 1020.0 |
| 20260503053141 | 55 | 97 | 1.0 | 2.0 | 0.00 | 0.00 | 0.00 | 97 | 1020.0 |
| 20260503052141 | 59 | 109 | 1.0 | 1.0 | 0.00 | 0.00 | 0.00 | 97 | 1021.0 |
| 20260503051140 | 56 | 109 | 1.0 | 1.0 | 0.00 | 0.00 | 0.00 | 97 | 1021.0 |
| 20260503050139 | 52 | 109 | 1.0 | 2.0 | 0.00 | 0.00 | 0.00 | 97 | 1021.0 |
| 20260503045139 | 60 | 109 | 1.0 | 2.0 | 0.00 | 0.00 | 0.00 | 97 | 1021.0 |
| 20260503044138 | 60 | 103 | 3.0 | 4.0 | 0.00 | 0.00 | 0.00 | 98 | 1021.0 |
| 20260503043137 | 57 | 103 | 3.0 | 4.0 | 0.00 | 0.00 | 0.00 | 98 | 1021.0 |
| 20260503042137 | 54 | 103 | 3.0 | 4.0 | 0.00 | 0.00 | 0.00 | 98 | 1022.0 |
| 20260503041136 | 51 | 103 | 3.0 | 4.0 | 0.00 | 0.00 | 0.00 | 98 | 1022.0 |
| 20260503040135 | 59 | 103 | 3.0 | 4.0 | 0.00 | 0.00 | 0.00 | 96 | 1022.0 |
| 20260503035135 | 56 | 103 | 3.0 | 4.0 | 0.00 | 0.00 | 0.00 | 96 | 1022.0 |
| 20260503034134 | 59 | 103 | 3.0 | 5.0 | 0.00 | 0.00 | 0.00 | 96 | 1022.0 |
| 20260503033133 | 56 | 103 | 3.0 | 5.0 | 0.00 | 0.00 | 0.00 | 96 | 1022.0 |
| 20260503032132 | 56 | 103 | 3.0 | 5.0 | 0.00 | 0.00 | 0.00 | 96 | 1022.0 |
| 20260503031132 | 53 | 103 | 3.0 | 5.0 | 0.00 | 0.00 | 0.00 | 96 | 1022.0 |
| 20260503030131 | 60 | 103 | 3.0 | 5.0 | 0.00 | 0.00 | 0.00 | 97 | 1022.0 |
| 20260503025130 | 57 | 103 | 3.0 | 5.0 | 0.00 | 0.00 | 0.00 | 97 | 1022.0 |
| 20260503024129 | 54 | 103 | 3.0 | 5.0 | 0.00 | 0.00 | 0.00 | 97 | 1022.0 |
| 20260503023129 | 51 | 103 | 3.0 | 5.0 | 0.00 | 0.00 | 0.00 | 97 | 1022.0 |
| 20260503022127 | 59 | 102 | 2.0 | 4.0 | 0.00 | 0.00 | 0.00 | 95 | 1021.0 |
| 20260503021127 | 58 | 102 | 1.0 | 4.0 | 0.00 | 0.00 | 0.00 | 95 | 1021.0 |
| 20260503020126 | 55 | 102 | 1.0 | 4.0 | 0.00 | 0.00 | 0.00 | 95 | 1021.0 |
| 20260503015125 | 52 | 102 | 2.0 | 4.0 | 0.00 | 0.00 | 0.00 | 95 | 1021.0 |
| 20260503014124 | 59 | 126 | 1.0 | 1.0 | 0.00 | 0.00 | 0.00 | 94 | 1021.0 |
| 20260503013123 | 56 | 126 | 1.0 | 1.0 | 0.00 | 0.00 | 0.00 | 94 | 1021.0 |
| 20260503012123 | 53 | 126 | 1.0 | 2.0 | 0.00 | 0.00 | 0.00 | 94 | 1021.0 |
| 20260503011122 | 57 | 126 | 1.0 | 1.0 | 0.00 | 0.00 | 0.00 | 96 | 1021.0 |
| 20260503010121 | 54 | 126 | 1.0 | 2.0 | 0.00 | 0.00 | 0.00 | 96 | 1021.0 |
| 20260503005120 | 54 | 126 | 1.0 | 2.0 | 0.00 | 0.00 | 0.00 | 96 | 1021.0 |
| 20260503004120 | 60 | 126 | 1.0 | 2.0 | 0.00 | 0.00 | 0.00 | 94 | 1021.0 |
| 20260503003119 | 60 | 88 | 1.0 | 1.0 | 0.00 | 0.00 | 0.00 | 95 | 1021.0 |
| 20260503002118 | 57 | 88 | 1.0 | 1.0 | 0.00 | 0.00 | 0.00 | 95 | 1020.0 |
| 20260503001117 | 54 | 88 | 1.0 | 2.0 | 0.00 | 0.00 | 0.00 | 95 | 1020.0 |
| 20260503000117 | 58 | 88 | 1.0 | 2.0 | 0.00 | 0.00 | 0.00 | 95 | 1020.0 |
| 20260502235116 | 58 | 88 | 1.0 | 1.0 | 0.00 | 0.00 | 0.00 | 95 | 1020.0 |
| 20260502234115 | 55 | 88 | 1.0 | 2.0 | 0.00 | 0.00 | 0.00 | 95 | 1020.0 |
| 20260502233114 | 59 | 88 | 1.0 | 2.0 | 0.00 | 0.00 | 0.00 | 96 | 1020.0 |
| 20260502232114 | 59 | 101 | 1.0 | 5.0 | 0.00 | 0.00 | 0.00 | 95 | 1019.0 |
| 20260502231113 | 56 | 101 | 1.0 | 5.0 | 0.00 | 0.00 | 0.00 | 95 | 1019.0 |
| 20260502230112 | 56 | 101 | 1.0 | 5.0 | 0.00 | 0.00 | 0.00 | 95 | 1019.0 |
| 20260502225112 | 53 | 101 | 2.0 | 5.0 | 0.00 | 0.00 | 0.00 | 95 | 1019.0 |
| 20260502224111 | 60 | 105 | 3.0 | 5.0 | 0.00 | 0.00 | 0.00 | 97 | 1019.0 |
| 20260502223110 | 57 | 105 | 3.0 | 5.0 | 0.00 | 0.00 | 0.00 | 97 | 1019.0 |
| 20260502222110 | 54 | 105 | 3.0 | 5.0 | 0.00 | 0.00 | 0.00 | 97 | 1018.0 |
| 20260502221109 | 51 | 105 | 3.0 | 5.0 | 0.00 | 0.00 | 0.00 | 97 | 1018.0 |
| 20260502220108 | 58 | 105 | 3.0 | 5.0 | 0.00 | 0.00 | 0.00 | 97 | 1018.0 |
| 20260502215108 | 55 | 105 | 3.0 | 5.0 | 0.00 | 0.00 | 0.00 | 97 | 1018.0 |
| 20260502214107 | 58 | 105 | 3.0 | 5.0 | 0.00 | 0.00 | 0.00 | 97 | 1018.0 |
| 20260502213106 | 55 | 105 | 3.0 | 5.0 | 0.00 | 0.00 | 0.00 | 97 | 1018.0 |
| 20260502212105 | 59 | 108 | 3.0 | 5.0 | 0.00 | 0.00 | 0.00 | 98 | 1018.0 |
| 20260502211105 | 56 | 108 | 3.0 | 5.0 | 0.00 | 0.00 | 0.00 | 98 | 1018.0 |
| 20260502210104 | 53 | 108 | 3.0 | 5.0 | 0.00 | 0.00 | 0.00 | 98 | 1018.0 |
| 20260502205103 | 53 | 108 | 3.0 | 5.0 | 0.00 | 0.00 | 0.00 | 98 | 1018.0 |
| 20260502204103 | 60 | 116 | 4.0 | 5.0 | 0.00 | 0.00 | 0.00 | 98 | 1018.0 |
| 20260502203102 | 57 | 116 | 4.0 | 5.0 | 0.00 | 0.00 | 0.00 | 98 | 1018.0 |
| 20260502202101 | 54 | 116 | 4.0 | 6.0 | 0.00 | 0.00 | 0.00 | 98 | 1018.0 |
| 20260502201101 | 60 | 116 | 4.0 | 6.0 | 0.00 | 0.00 | 0.00 | 95 | 1018.0 |
| 20260502200100 | 60 | 116 | 4.0 | 5.0 | 0.00 | 0.00 | 0.00 | 95 | 1018.0 |
| 20260502195059 | 57 | 116 | 4.0 | 6.0 | 0.00 | 0.00 | 0.00 | 95 | 1018.0 |
| 20260502194059 | 60 | 111 | 4.0 | 5.0 | 0.00 | 0.00 | 0.00 | 95 | 1018.0 |
| 20260502193058 | 57 | 111 | 4.0 | 6.0 | 0.00 | 0.00 | 0.00 | 95 | 1019.0 |
| 20260502192057 | 57 | 111 | 4.0 | 6.0 | 0.00 | 0.00 | 0.00 | 95 | 1019.0 |
| 20260502191057 | 61 | 111 | 4.0 | 5.0 | 0.00 | 0.00 | 0.00 | 95 | 1019.0 |